Regional Weather Roundup
Issued by NWS

Home | Current Version | Previous Version | Graphics & Text | Print | Product List | Glossary On
Versions: 1 2 3 4 5 6 7 8 9 10 11 12 13 14 15 16 17 18 19 20 21 22 23 24 25 26 27 28
000
ASUS45 KCYS 221710
RWRWY

WYOMING REGIONAL WEATHER ROUNDUP
NATIONAL WEATHER SERVICE CHEYENNE WY
1000 AM MST MON JAN 22 2018

NOTE:  "FAIR" INDICATES FEW OR NO CLOUDS BELOW 12,000 FEET
WITH NO SIGNIFICANT WEATHER AND/OR OBSTRUCTIONS TO VISIBILITY.

WYZ001-221800-
YELLOWSTONE NATIONAL PARK

CITY           SKY/WX    TMP DP  RH WIND       PRES   REMARKS
LK YELLOWSTONE   N/A      8   5  87 CALM      30.14R
W YELLOWSTONE  NOT AVBL

$$
WYZ002>013-054>058-071-098>099-221800-
NORTHERN WYOMING

CITY           SKY/WX    TMP DP  RH WIND       PRES   REMARKS
JACKSON        LGT SNOW   3   0  85 CALM      30.23R VSB 1
CODY           FAIR      30  13  49 SW14      30.07S WCI  19
GREYBULL       FAIR       9   7  92 CALM      30.15R
WORLAND        FAIR       4   3  96 CALM      30.14R
SHERIDAN       FAIR      17   9  70 S5        30.04R WCI  10
BUFFALO        FAIR      29  10  45 W5        30.02R WCI  24
GILLETTE       FAIR      26  14  60 W12       30.01R WCI  16
HULETT         FAIR      27  18  69 SW9       30.01S WCI  17
NEWCASTLE      FAIR      25  12  58 NW8       30.01S WCI  16

$$
WYZ014>020-022>026-101>103-221800-
CENTRAL WYOMING

CITY           SKY/WX    TMP DP  RH WIND       PRES   REMARKS
BIG PINEY      CLOUDY     8   3  80 E5        30.17R WCI   0
PINEDALE       CLOUDY    14   5  67 NW6       30.16R WCI   5
DUBOIS         FAIR      21   9  58 N16G22    30.06S WCI   7
LANDER         FAIR       9   2  73 CALM      30.07R
RIVERTON       FAIR       6   2  83 SE3       30.09R
CASPER         FAIR      17  10  74 SW25G32   30.08R WCI  -1
DOUGLAS        FAIR      21  10  62 NW15G21   30.04S WCI   8

$$
WYZ021-027>030-104>119-221800-
SOUTHERN WYOMING

CITY           SKY/WX    TMP DP  RH WIND       PRES   REMARKS
EVANSTON       CLOUDY    13  10  88 SW10      30.19S WCI   0
FORT BRIDGER   CLOUDY    18   8  64 W9        30.21R WCI   7
ROCK SPRINGS   FAIR      13   7  77 W14       30.19R WCI  -2
DIXON            N/A     11   6  81 E6        30.27R WCI   1
RAWLINS        FAIR      17   8  67 VRB6      30.14R WCI   9
SARATOGA       FAIR      10   3  72 S13       30.17R WCI  -5
LARAMIE        FAIR       9   5  84 E7        30.04R WCI  -2
CHEYENNE       FAIR      25   9  50 W23G30    29.98R WCI  10
TORRINGTON     FAIR      17   7  64 NW12      30.03R WCI   4

$$




USA.gov is the U.S. government's official web portal to all federal, state and local government web resources and services.